Погода в Новогуйвинском

Украина / Житомирская область     50°12′24″N   28°41′31″E
темп.,
°C
ветер,
м/с
пор.,
м/с
влажн.,
%
обл.,
%
осадки,
мм/ч
давл.,
гПа
погр.,
м
6 мая, чт
чт600:00+11ю716858 0.2 1005735
03:00+9ю71484100 0.3 1004447
06:00+8юз51192100 0.0 1004433
09:00+8з81185100 0.4 10081246
12:00+12зсз7105992 0.1 10101637
15:00+13зсз8104498 0.1 10111877
18:00+12зсз5951100 0.0 10121702
21:00+8зюз3361100 0.0 101321
7 мая, пт
пт700:00+7ююз346553 0.0 101471
03:00+5ююз37735 0.0 1014107
06:00+5ююз41076100 0.0 1013197
09:00+11ю61165100 0.0 1012565
12:00+10ююв61177100 0.3 1010885
15:00+14ю8127699 0.9 10081157
18:00+12юз51089100 1.1 1007549
21:00+10ююз3596100 3.4 1007173
8 мая, сб
сб800:00+10юз3796100 1.5 1007205
03:00+9з51289100 1.8 1008612
06:00+5зсз81385100 0.0 1011780
09:00+6зсз81274100 0.0 10141086
12:00+7зсз9126898 0.1 10161393
15:00+8зсз81164100 0.1 10161620
18:00+9зсз71063100 0.2 10171779
21:00+5з47775 0.3 1019111
9 мая, вс
вс900:00+3з38870 0.0 1021151
03:00+2з38874 0.0 1022128
06:00+2з38884 0.0 1023158
09:00+8зсз47695 0.0 1024591
12:00+12сз45537 0.0 10241682
15:00+14зсз344387 0.1 10242224
18:00+14зсз234314 0.0 10241965
21:00+8вюв11625 0.0 102610
10 мая, пн
пн1000:00+6ююв22685 0.0 102717
03:00+5ююв34735 0.0 102757
06:00+5ююв34766 0.0 102866
09:00+12ююв46605 0.0 1028406
12:00+16ююв56505 0.0 10271410
15:00+17ююв55464 0.0 10261574
18:00+16юв44540 0.0 10241366
21:00+11вюв47755 0.0 102597